Regional Weather Roundup
Issued by NWS

Home | Current Version | Previous Version | Text Only | Print | Product List | Glossary Off
Versions: 1 2 3 4 5 6 7 8 9 10 11 12 13 14 15 16 17 18 19 20 21 22 23 24 25 26 27 28 29 30 31 32 33 34 35 36 37 38 39 40 41 42 43 44 45 46 47 48 49 50

000
ASUS43 KMPX 260410
RWRMN
WEATHER ROUNDUP FOR MINNESOTA
NATIONAL WEATHER SERVICE TWIN CITIES/CHANHASSEN MN
1000 PM CST SUN JAN 25 2015


NOTE: "FAIR" INDICATES FEW OR NO CLOUDS BELOW 12,000 FEET WITH NO
SIGNIFICANT WEATHER AND/OR OBSTRUCTIONS TO VISIBILITY. N/A MEANS
CURRENT SKY AND/OR WEATHER CONDITIONS ARE NOT AVAILABLE.

MNZ060>063-068>070-260500-
   Twin Cities Metro

CITY           SKY/WX    TMP DP  RH WIND       PRES   REMARKS
TWIN CITIES    MOCLDY    22  15  75 S8        30.01F WCI  12
ST PAUL        MOCLDY    21  16  81 S6        30.03F WCI  13
CRYSTAL        MOCLDY    23  16  74 S6        30.00F WCI  16
BLAINE         MOCLDY    23  18  80 S6        30.00F WCI  16
LAKEVILLE      MOCLDY    18  16  93 CALM      30.01F
EDEN PRAIRIE   CLOUDY    21  16  81 S5        30.00F WCI  15
SOUTH ST PAUL  MOCLDY    22  17  79 SW5       30.02F WCI  16
LAKE ELMO      FAIR      19  14  79 CALM      30.02F
$$
MNZ001>005-007-008-013>017-022>024-027-028-260500-
   Northwest Minnesota

CITY           SKY/WX    TMP DP  RH WIND       PRES   REMARKS
BEMIDJI        CLOUDY    25  19  77 S7        29.82F WCI  17
HALLOCK        CLOUDY    25  21  86 S21G26    29.69F WCI  10
ROSEAU         CLOUDY    21  18  86 S17       29.71F WCI   7
WARROAD        LGT SNOW  21  18  86 S6        29.72F WCI  14
THIEF RVR FALL CLOUDY    23  19  86 S15       29.78F WCI  10
CROOKSTON      CLOUDY    25  19  80 S17       29.82F WCI  11
FOSSTON        CLOUDY    21  16  79 S13       29.83F WCI   9
DETROIT LAKES  MOCLDY    25  19  80 S7        29.90R WCI  17
MOORHEAD       CLOUDY    27  25  93 S13       29.87F WCI  16
PARK RAPIDS    CLOUDY    25  21  85 S9        29.86F WCI  15
MAHNOMEN       MOCLDY    23  18  81 S13       29.83F WCI  11
$$
MNZ006-009>011-018-025>026-260500-
   North Central Minnesota

CITY           SKY/WX    TMP DP  RH WIND       PRES   REMARKS
BAUDETTE       FLURRIES  21  14  74 S10       29.75F WCI  10
FLAG ISLAND    FLURRIES  19  16  86 S16       29.71F WCI   5
INTL FALLS     CLOUDY    23  13  65 S9        29.80F WCI  13
WASKISH        CLOUDY    25  19  80 CALM      29.80F
BIG FORK       CLOUDY    23  16  74 S12       29.85F WCI  12
LONGVILLE      CLOUDY    23  16  74 S7        29.88F WCI  15
GRAND RAPIDS   CLOUDY    19  12  73 S9        29.87F WCI   9
CRANE LAKE     CLOUDY    19  12  73 S5        29.88F WCI  13
ORR            CLOUDY    19  12  73 S9        29.83F WCI   9
COOK           CLOUDY    18  12  79 S7        29.87F WCI   8
WALKER         CLOUDY    24  19  80 SW6       29.85F WCI  17
$$
MNZ012-019>021-037-260500-
   Northeast Minnesota

CITY           SKY/WX    TMP DP  RH WIND       PRES   REMARKS
DULUTH         CLOUDY    18  10  71 S7        29.92F WCI   9
ELY            CLOUDY    16  10  79 S5        29.89F WCI   9
HIBBING        CLOUDY    20  12  71 S5        29.89F WCI  13
EVELETH        CLOUDY    19  14  79 S8        29.91S WCI   9
DULUTH HARBOR  PTCLDY    19  12  73 CALM      29.99F
TWO HARBORS    CLOUDY    19  16  86 CALM      29.92F
SILVER BAY     CLOUDY    18  14  86 CALM      29.92F
GRAND MARAIS     N/A     19  14  81 N5        29.98F WCI  12
G MARAIS ARPRT LGT SNOW  10   7  85 CALM      29.89F
$$
MNZ029>031-032-039>041-046>048-054>057-064-260500-
   West Central Minnesota

CITY           SKY/WX    TMP DP  RH WIND       PRES   REMARKS
FERGUS FALLS   CLOUDY    25  21  86 S9        29.92F WCI  15
WHEATON        CLOUDY    25  21  86 S9        29.93F WCI  15
MORRIS         CLOUDY    27  25  93 S8        29.93F WCI  18
ALEXANDRIA     CLOUDY    24  21  88 S9        29.92F WCI  14
ELBOW LAKE     CLOUDY    24  22  92 S13       29.91F WCI  13
WADENA         CLOUDY    21  19  93 S7        29.89F WCI  13
GLENWOOD       CLOUDY    25  23  93 S7        29.94F WCI  17
APPLETON       CLOUDY    28  27  93 S7        29.95F WCI  21
BENSON         CLOUDY    28  25  86 SW8       29.95F WCI  20
ORTONVILLE     CLOUDY    27  25  93 S8        29.93F WCI  18
MADISON        CLOUDY    32  30  93 S6        29.96F FOG     WCI  26
WILLMAR        MOCLDY    30  27  86 SW5       29.97F WCI  25
$$
MNZ033>034-036-042>043-049>051-058-059-260500-
   Central Minnesota

CITY           SKY/WX    TMP DP  RH WIND       PRES   REMARKS
ST CLOUD       CLOUDY    23  17  78 S7        29.96F WCI  15
SAUK CENTRE    CLOUDY    26  23  89 S9        29.94F WCI  16
PAYNESVILLE    CLOUDY    23  21  91 SE6       29.96F WCI  16
AITKIN         CLOUDY    25  16  68 S7        29.90F WCI  17
PINE RIVER     CLOUDY    25  18  74 S6        29.93F WCI  18
BRAINERD       CLOUDY    23  16  74 S8        29.92F WCI  14
STAPLES        CLOUDY    25  19  80 S9        29.90F WCI  15
LONG PRAIRIE   CLOUDY    27  23  86 S8        29.93F WCI  18
LITTLE FALLS   CLOUDY    25  18  74 S5        29.94F WCI  19
LITCHFIELD     CLOUDY    27  23  86 CALM      29.98F
BUFFALO        CLOUDY    23  17  77 S6        29.99F WCI  15
MAPLE LAKE     CLOUDY    24  20  83 S5        29.99F WCI  18
$$
MNZ037-044-045-052-053-260500-
   East Central Minnesota

CITY           SKY/WX    TMP DP  RH WIND       PRES   REMARKS
PRINCETON      CLOUDY    23  16  74 S6        29.97F WCI  16
MORA           CLOUDY    21  16  79 S3        29.99S
CAMBRIDGE      CLOUDY    25  14  63 S7        29.96F WCI  17
RUSH CITY      MOCLDY    21  14  76 S5        29.98F WCI  14
MOOSE LAKE     MOCLDY    19  14  79 CALM      29.94F
HINCKLEY       FAIR      23  16  74 S6        29.96F WCI  16
CLOQUET        CLOUDY    18  12  79 CALM      29.93F
MCGREGOR       CLOUDY    21  16  79 SE6       29.93F WCI  14
$$
MNZ071>073-080-081-089-090-097-098-260500-
   Southwest Minnesota

CITY           SKY/WX    TMP DP  RH WIND       PRES   REMARKS
MONTEVIDEO     CLOUDY    28  28 100 SW7       29.98S WCI  21
GRANITE FALLS  CLOUDY    29  27  92 S9        29.99F WCI  21
CANBY          CLOUDY    30  29  95 CALM      29.97F
MARSHALL       CLOUDY    28  25  86 CALM      29.99F
REDWOOD FALLS  CLOUDY    30  26  85 S9        29.98F WCI  22
OLIVIA         CLOUDY    28  27  93 S8        29.97F WCI  20
PIPESTONE      CLOUDY    32  30  93 W7        29.96S WCI  26
WINDOM         CLOUDY    28  27  93 CALM      29.98F
WORTHINGTON    CLOUDY    30  28  93 S8        29.99S WCI  23
JACKSON        CLOUDY    30  28  93 S7        30.00F WCI  23
TRACY          CLOUDY    30  28  93 S6        29.97F WCI  24
SLAYTON        CLOUDY    30  30  98 CALM      29.97F
$$
MNZ065>067-074>077-082>085-091>093-260500-
   South Central Minnesota

CITY           SKY/WX    TMP DP  RH WIND       PRES   REMARKS
MANKATO        CLOUDY    25  18  74 S3        30.01F
NEW ULM        CLOUDY    25  21  86 S6        29.99F WCI  18
ST JAMES       CLOUDY    28  27  93 SE6       30.02F WCI  22
FAIRMONT       CLOUDY    28  21  74 S5        30.01F WCI  23
GLENCOE        CLOUDY    25  21  83 S3        29.99F
FARIBAULT      MOCLDY    19  18  93 CALM      30.02F
OWATONNA       MOCLDY    21  18  86 CALM      30.01R
WASECA         CLOUDY    23  21  93 CALM      30.04R
ALBERT LEA     MOCLDY    21  21 100 CALM      30.01F
$$
MNZ078>079-086>088-094>096-260500-
   Southeast Minnesota

CITY           SKY/WX    TMP DP  RH WIND       PRES   REMARKS
ROCHESTER      CLOUDY    23  17  78 SW3       30.01F
RED WING       MOCLDY    16  12  86 CALM      30.02F
STANTON        FAIR      20  17  88 CALM      30.00F
DODGE CENTER   CLOUDY    23  19  86 SW5       30.01R WCI  17
WINONA         CLOUDY    21  18  86 CALM      30.06F
AUSTIN         CLOUDY    25  19  80 W3        30.02S
PRESTON        CLOUDY    23  18  78 CALM      30.01F
$$
ABBREVIATIONS USED IN REMARKS
   TC - TEMPERATURES IN CELSIUS
  WCI - WIND CHILL INDEX
   HX - HEAT INDEX
  VSB - VISIBILITY
$$



USA.gov is the U.S. government's official web portal to all federal, state and local government web resources and services.